�������l�o���
Date,Time,MP-1(��Sv/h),MP-2(��Sv/h),MP-3(��Sv/h),MP-4(��Sv/h),MP-5(��Sv/h),MP-6(��Sv/h),MP-7(��Sv/h),MP-8(��Sv/h),����,����(m/s),���J
2022/09/06,00:00,0.599,0.841,0.529,1.022,0.732,0.339,0.590,0.556,��,5.5,��
2022/09/06,00:10,0.599,0.842,0.531,1.024,0.730,0.339,0.592,0.555,��,5.8,��
2022/09/06,00:20,0.597,0.841,0.529,1.023,0.729,0.338,0.591,0.556,��,6.3,��
2022/09/06,00:30,0.597,0.842,0.531,1.023,0.729,0.340,0.591,0.556,��,6.0,��
2022/09/06,00:40,0.597,0.840,0.529,1.024,0.730,0.338,0.591,0.556,��,5.6,��
2022/09/06,00:50,0.597,0.842,0.529,1.020,0.731,0.339,0.591,0.553,��,5.7,��
2022/09/06,01:00,0.599,0.841,0.530,1.022,0.729,0.338,0.590,0.556,��,5.3,��
2022/09/06,01:10,0.597,0.839,0.530,1.023,0.728,0.338,0.592,0.555,��,4.6,��
2022/09/06,01:20,0.597,0.842,0.529,1.023,0.729,0.339,0.591,0.555,��,4.8,��
2022/09/06,01:30,0.597,0.842,0.530,1.021,0.731,0.339,0.592,0.555,��쓌,5.9,��
2022/09/06,01:40,0.597,0.839,0.528,1.024,0.730,0.339,0.591,0.555,��쓌,5.1,��
2022/09/06,01:50,0.595,0.841,0.530,1.022,0.727,0.339,0.592,0.555,��쓌,4.3,��
2022/09/06,02:00,0.597,0.840,0.530,1.023,0.730,0.338,0.592,0.555,��쓌,2.6,��
2022/09/06,02:10,0.596,0.840,0.530,1.021,0.728,0.342,0.593,0.555,��쓌,4.1,��
2022/09/06,02:20,0.598,0.840,0.530,1.022,0.729,0.339,0.592,0.556,��쓌,3.8,��
2022/09/06,02:30,0.597,0.838,0.531,1.024,0.730,0.337,0.593,0.557,��,3.4,��
2022/09/06,02:40,0.597,0.839,0.529,1.024,0.729,0.339,0.590,0.556,��,3.2,��
2022/09/06,02:50,0.598,0.838,0.531,1.024,0.730,0.338,0.593,0.556,��,2.6,��
2022/09/06,03:00,0.597,0.840,0.531,1.023,0.729,0.339,0.591,0.556,��,1.9,�L
2022/09/06,03:10,0.595,0.841,0.530,1.021,0.728,0.338,0.593,0.556,��쓌,1.9,�L
2022/09/06,03:20,0.597,0.841,0.530,1.023,0.731,0.339,0.592,0.557,��,2.2,�L
2022/09/06,03:30,0.598,0.838,0.531,1.022,0.730,0.338,0.590,0.555,��쓌,2.2,��
2022/09/06,03:40,0.598,0.837,0.531,1.023,0.730,0.340,0.592,0.555,��쓌,3.9,��
2022/09/06,03:50,0.596,0.839,0.530,1.025,0.730,0.338,0.592,0.555,��쓌,4.7,�L
2022/09/06,04:00,0.597,0.840,0.532,1.024,0.728,0.339,0.591,0.556,��쓌,5.6,�L
2022/09/06,04:10,0.596,0.838,0.531,1.023,0.730,0.338,0.592,0.557,��,5.2,�L
2022/09/06,04:20,0.596,0.840,0.530,1.022,0.730,0.339,0.594,0.555,��,4.8,�L
2022/09/06,04:30,0.596,0.837,0.530,1.021,0.730,0.339,0.591,0.555,��,5.1,��
2022/09/06,04:40,0.597,0.839,0.530,1.023,0.728,0.338,0.591,0.554,��,5.1,��
2022/09/06,04:50,0.595,0.837,0.530,1.023,0.728,0.338,0.593,0.553,��쓌,4.8,��
2022/09/06,05:00,0.597,0.838,0.529,1.024,0.727,0.338,0.591,0.553,��쓌,5.5,��
2022/09/06,05:10,0.595,0.840,0.530,1.020,0.730,0.339,0.592,0.555,��쓌,4.8,��
2022/09/06,05:20,0.596,0.840,0.531,1.025,0.729,0.338,0.591,0.554,��쓌,2.9,��
2022/09/06,05:30,0.595,0.839,0.530,1.022,0.728,0.338,0.593,0.555,��쓌,3.2,�L
2022/09/06,05:40,0.596,0.838,0.528,1.023,0.728,0.338,0.591,0.557,��쓌,3.8,�L
2022/09/06,05:50,0.597,0.838,0.530,1.024,0.729,0.338,0.592,0.555,��쓌,3.6,��
2022/09/06,06:00,0.596,0.838,0.531,1.023,0.727,0.336,0.592,0.556,��쓌,3.7,��
2022/09/06,06:10,0.596,0.837,0.529,1.023,0.727,0.337,0.591,0.554,��쓌,3.3,��
2022/09/06,06:20,0.595,0.837,0.528,1.022,0.726,0.338,0.591,0.554,��쓌,2.6,��
2022/09/06,06:30,0.595,0.839,0.529,1.022,0.728,0.337,0.590,0.554,��쓌,2.0,��
2022/09/06,06:40,0.595,0.839,0.530,1.023,0.729,0.337,0.592,0.554,��쓌,2.6,��
2022/09/06,06:50,0.595,0.838,0.530,1.021,0.726,0.337,0.590,0.554,��,2.8,��
2022/09/06,07:00,0.596,0.837,0.529,1.023,0.727,0.337,0.592,0.553,��,2.8,�L
2022/09/06,07:10,0.595,0.838,0.529,1.023,0.726,0.338,0.593,0.553,��,3.7,�L
2022/09/06,07:20,0.595,0.836,0.529,1.022,0.725,0.337,0.593,0.552,��,4.2,��
2022/09/06,07:30,0.594,0.835,0.528,1.021,0.727,0.338,0.592,0.554,��,4.0,��
2022/09/06,07:40,0.595,0.835,0.531,1.023,0.728,0.337,0.591,0.554,��쓌,2.2,��
2022/09/06,07:50,0.596,0.837,0.529,1.022,0.730,0.337,0.589,0.554,��,1.2,��
2022/09/06,08:00,0.596,0.835,0.530,1.024,0.728,0.337,0.592,0.554,��쓌,4.7,��
2022/09/06,08:10,0.595,0.835,0.531,1.022,0.727,0.337,0.591,0.553,��쓌,5.0,��
2022/09/06,08:20,0.595,0.833,0.528,1.023,0.727,0.338,0.590,0.553,��쓌,4.6,��
2022/09/06,08:30,0.595,0.834,0.529,1.022,0.727,0.338,0.592,0.553,��쓌,5.8,��
2022/09/06,08:40,0.596,0.833,0.529,1.022,0.727,0.338,0.593,0.554,��쓌,6.4,��
2022/09/06,08:50,0.598,0.836,0.529,1.023,0.727,0.337,0.592,0.552,��쓌,7.7,��
2022/09/06,09:00,0.595,0.836,0.528,1.026,0.727,0.338,0.593,0.552,��쓌,8.1,��
2022/09/06,09:10,0.596,0.834,0.529,1.026,0.728,0.338,0.593,0.551,��쓌,8.3,��
2022/09/06,09:20,0.598,0.833,0.529,1.023,0.729,0.339,0.591,0.554,��쓌,7.2,��
2022/09/06,09:30,0.598,0.837,0.528,1.023,0.729,0.339,0.593,0.553,��쓌,6.8,��
2022/09/06,09:40,0.597,0.836,0.528,1.023,0.728,0.338,0.592,0.553,��쓌,7.0,��
2022/09/06,09:50,0.598,0.835,0.529,1.024,0.730,0.337,0.593,0.552,��쓌,7.0,��
2022/09/06,10:00,0.598,0.837,0.528,1.020,0.729,0.338,0.591,0.554,��쓌,7.7,��
2022/09/06,10:10,0.597,0.835,0.528,1.023,0.728,0.339,0.593,0.553,��쓌,8.9,��
2022/09/06,10:20,0.598,0.836,0.528,1.022,0.730,0.337,0.592,0.554,��쓌,9.5,��
2022/09/06,10:30,0.599,0.838,0.529,1.022,0.732,0.338,0.593,0.555,��쓌,10.2,��
2022/09/06,10:40,0.598,0.836,0.529,1.022,0.729,0.339,0.594,0.553,��쓌,9.9,��
2022/09/06,10:50,0.599,0.840,0.531,1.025,0.731,0.338,0.592,0.555,��쓌,9.1,��
2022/09/06,11:00,0.598,0.838,0.530,1.024,0.730,0.339,0.594,0.553,��쓌,7.5,��
2022/09/06,11:10,0.598,0.836,0.531,1.027,0.732,0.339,0.593,0.555,��쓌,9.1,��
2022/09/06,11:20,0.600,0.839,0.531,1.026,0.730,0.338,0.594,0.554,��쓌,9.2,��
2022/09/06,11:30,0.600,0.839,0.530,1.023,0.732,0.340,0.592,0.554,��쓌,11.4,��
2022/09/06,11:40,0.599,0.839,0.531,1.024,0.733,0.338,0.592,0.554,��쓌,10.6,��
2022/09/06,11:50,0.599,0.841,0.529,1.027,0.732,0.339,0.591,0.554,��쓌,10.2,��
2022/09/06,12:00,0.598,0.839,0.530,1.025,0.732,0.339,0.593,0.554,��쓌,9.7,��
2022/09/06,12:10,0.599,0.840,0.530,1.026,0.732,0.340,0.590,0.555,��쓌,10.7,��
2022/09/06,12:20,0.599,0.840,0.531,1.025,0.732,0.339,0.592,0.554,��쓌,9.1,��
2022/09/06,12:30,0.599,0.841,0.529,1.026,0.734,0.340,0.592,0.556,��쓌,8.4,��
2022/09/06,12:40,0.599,0.840,0.530,1.027,0.732,0.340,0.593,0.556,��쓌,9.3,��
2022/09/06,12:50,0.599,0.840,0.530,1.026,0.731,0.339,0.591,0.555,��쓌,10.7,��
2022/09/06,13:00,0.602,0.841,0.532,1.027,0.733,0.339,0.592,0.554,��쓌,9.9,��
2022/09/06,13:10,0.599,0.841,0.530,1.027,0.733,0.340,0.591,0.554,��쓌,9.1,�L
2022/09/06,13:20,0.600,0.840,0.530,1.027,0.733,0.340,0.591,0.554,��쓌,10.2,�L
2022/09/06,13:30,0.601,0.841,0.530,1.026,0.731,0.340,0.592,0.555,��,9.0,�L
2022/09/06,13:40,0.600,0.840,0.531,1.026,0.732,0.340,0.590,0.555,��쓌,8.5,�L
2022/09/06,13:50,0.601,0.841,0.529,1.027,0.732,0.339,0.590,0.555,��쓌,9.1,��
2022/09/06,14:00,0.603,0.840,0.532,1.025,0.733,0.339,0.590,0.554,��쓌,9.1,��
2022/09/06,14:10,0.603,0.841,0.532,1.026,0.733,0.341,0.593,0.554,��쓌,8.4,��
2022/09/06,14:20,0.603,0.838,0.532,1.026,0.734,0.340,0.592,0.555,��,7.8,��
2022/09/06,14:30,0.604,0.841,0.534,1.029,0.734,0.341,0.591,0.554,��쓌,9.8,��
2022/09/06,14:40,0.602,0.840,0.532,1.027,0.735,0.340,0.591,0.554,��,8.5,��
2022/09/06,14:50,0.604,0.842,0.535,1.026,0.734,0.341,0.592,0.555,��쓌,10.5,��
2022/09/06,15:00,0.599,0.844,0.535,1.026,0.735,0.341,0.592,0.557,��,10.6,��
2022/09/06,15:10,0.598,0.843,0.535,1.026,0.736,0.340,0.591,0.557,��,11.3,�L
2022/09/06,15:20,0.598,0.844,0.533,1.029,0.736,0.341,0.593,0.555,��,11.1,��
2022/09/06,15:30,0.596,0.844,0.533,1.030,0.736,0.340,0.592,0.555,��,11.8,��
2022/09/06,15:40,0.597,0.844,0.533,1.029,0.736,0.342,0.591,0.555,��,9.7,��
2022/09/06,15:50,0.600,0.845,0.533,1.028,0.736,0.341,0.592,0.555,��,11.3,��
2022/09/06,16:00,0.603,0.844,0.534,1.027,0.738,0.340,0.593,0.556,��,14.1,��
2022/09/06,16:10,0.601,0.846,0.532,1.028,0.738,0.341,0.592,0.556,��,11.4,��
2022/09/06,16:20,0.604,0.843,0.533,1.026,0.735,0.343,0.591,0.554,��,12.8,��
2022/09/06,16:30,0.603,0.844,0.533,1.027,0.736,0.340,0.594,0.556,��,12.7,��
2022/09/06,16:40,0.604,0.844,0.534,1.026,0.737,0.342,0.593,0.555,��,15.3,��
2022/09/06,16:50,0.603,0.846,0.532,1.027,0.736,0.342,0.591,0.558,��,12.7,��
2022/09/06,17:00,0.604,0.844,0.533,1.027,0.737,0.340,0.591,0.558,��,11.0,��
2022/09/06,17:10,0.599,0.842,0.534,1.028,0.736,0.343,0.591,0.556,��,9.9,��
2022/09/06,17:20,0.598,0.843,0.534,1.027,0.736,0.342,0.592,0.558,��,12.1,��
2022/09/06,17:30,0.599,0.844,0.534,1.028,0.737,0.342,0.592,0.557,��,12.0,��
2022/09/06,17:40,0.599,0.846,0.534,1.028,0.738,0.342,0.593,0.557,��,8.7,��
2022/09/06,17:50,0.600,0.848,0.533,1.028,0.740,0.342,0.591,0.556,��,11.3,��
2022/09/06,18:00,0.599,0.846,0.535,1.028,0.738,0.342,0.593,0.558,��,10.7,��
2022/09/06,18:10,0.598,0.846,0.533,1.028,0.737,0.342,0.592,0.557,��,10.5,��
2022/09/06,18:20,0.600,0.847,0.533,1.027,0.738,0.341,0.592,0.557,��쐼,8.1,��
2022/09/06,18:30,0.600,0.843,0.534,1.029,0.736,0.341,0.592,0.557,��,7.9,��
2022/09/06,18:40,0.598,0.844,0.534,1.026,0.736,0.340,0.593,0.556,��,8.9,��
2022/09/06,18:50,0.599,0.845,0.533,1.030,0.737,0.341,0.592,0.557,��,9.8,��
2022/09/06,19:00,0.600,0.846,0.535,1.029,0.738,0.340,0.592,0.557,��,8.7,��
2022/09/06,19:10,0.601,0.845,0.534,1.030,0.738,0.341,0.594,0.557,��,8.4,��
2022/09/06,19:20,0.600,0.847,0.535,1.030,0.737,0.342,0.594,0.556,��,9.2,��
2022/09/06,19:30,0.599,0.847,0.534,1.032,0.736,0.341,0.593,0.555,��,7.7,��
2022/09/06,19:40,0.599,0.844,0.533,1.028,0.736,0.343,0.594,0.558,��,9.4,��
2022/09/06,19:50,0.600,0.848,0.534,1.031,0.737,0.341,0.593,0.557,��,9.9,��
2022/09/06,20:00,0.599,0.845,0.534,1.032,0.737,0.342,0.594,0.557,��,10.5,��
2022/09/06,20:10,0.600,0.844,0.535,1.030,0.736,0.340,0.592,0.556,��,10.4,��
2022/09/06,20:20,0.601,0.846,0.533,1.029,0.736,0.341,0.594,0.556,��,10.6,��
2022/09/06,20:30,0.600,0.847,0.535,1.030,0.739,0.341,0.595,0.559,��,11.3,��
2022/09/06,20:40,0.599,0.848,0.534,1.030,0.736,0.341,0.592,0.558,��,9.9,��
2022/09/06,20:50,0.599,0.847,0.534,1.031,0.738,0.341,0.592,0.558,��,9.8,��
2022/09/06,21:00,0.598,0.848,0.534,1.031,0.737,0.340,0.593,0.556,��,9.7,��
2022/09/06,21:10,0.601,0.847,0.533,1.030,0.737,0.340,0.593,0.557,��,9.6,��
2022/09/06,21:20,0.600,0.846,0.533,1.030,0.736,0.342,0.594,0.559,��,8.5,��
2022/09/06,21:30,0.600,0.848,0.534,1.029,0.737,0.340,0.594,0.559,��,10.2,��
2022/09/06,21:40,0.599,0.846,0.532,1.029,0.736,0.340,0.595,0.558,��,8.3,��
2022/09/06,21:50,0.599,0.847,0.534,1.031,0.736,0.341,0.592,0.557,��,9.5,��
2022/09/06,22:00,0.598,0.847,0.534,1.029,0.737,0.341,0.593,0.557,��,9.7,��
2022/09/06,22:10,0.598,0.847,0.534,1.030,0.736,0.341,0.593,0.559,��,10.5,��
2022/09/06,22:20,0.600,0.847,0.533,1.030,0.736,0.342,0.594,0.558,��,10.2,��
2022/09/06,22:30,0.599,0.846,0.534,1.028,0.737,0.341,0.593,0.558,��,9.0,��
2022/09/06,22:40,0.598,0.845,0.535,1.029,0.737,0.340,0.592,0.558,��,7.3,��
2022/09/06,22:50,0.600,0.845,0.533,1.029,0.739,0.341,0.594,0.559,��,6.9,��
2022/09/06,23:00,0.600,0.842,0.534,1.030,0.737,0.341,0.593,0.559,��,7.4,��
2022/09/06,23:10,0.600,0.847,0.535,1.030,0.738,0.339,0.592,0.557,��,7.1,��
2022/09/06,23:20,0.600,0.846,0.534,1.029,0.738,0.341,0.592,0.558,��,6.2,��
2022/09/06,23:30,0.599,0.845,0.534,1.033,0.737,0.340,0.592,0.559,��,7.0,��
2022/09/06,23:40,0.598,0.845,0.534,1.029,0.737,0.340,0.593,0.559,��,8.3,��
2022/09/06,23:50,0.597,0.845,0.532,1.029,0.738,0.340,0.593,0.558,��,7.2,��
